Flag for Czech Republic Weather past 2 weeks in Tábor, Czech Republic

Now
69 °F

Partly sunny.


Feels Like: 69 °F
Forecast: 56 / 82 °F
Wind: 5 mph from East

Location: Kocelovice

Current Time: Aug 1, 2015 at 12:29:49 PM

Latest Report: Aug 1, 2015 at 11:00 AM


Visibility: 41 mi

Pressure: 29.94 "Hg

Humidity: 40%

Dew point: 44 °F

Location of TáborLocation

Historic Weather in Tábor — Graph

°F

Tábor temperature yesterday

Maximum temperature yesterday: 72 °F (at 6:00 PM)
Minimum temperature yesterday: 47 °F (at 6:00 AM)
Average temperature yesterday: 60 °F

Past Weeks' High & Low Weather Summary

 TemperatureHumidityPressure
High94 °F (Jul 22, 4:00 PM)98% (Jul 30, 6:00 AM)30.10 "Hg (Jul 30, 6:00 AM)
Low43 °F (Jul 30, 6:00 AM)24% (Jul 26, 5:00 PM)29.64 "Hg (Jul 25, 3:00 AM)
Average69 °F57%29.88 "Hg
* Reported Jul 17 11:00 AM — Aug 1 11:00 AM, Tábor, Weather by CustomWeather, © 2015

Note: Actual official high and low records may vary slightly from our data, if they occured in-between our weather recording intervals... More about our weather records

Advertising

Tábor weather history for previous 24 hours

 ConditionsComfort  
Time TempWeatherWind HumidityBarometerVisibility
11:00 AM
Sat, Aug 1
69 °FPartly sunny.5 mph40%29.94 "Hg40 mi
10:00 AM65 °FScattered clouds.6 mph45%29.96 "Hg40 mi
9:00 AM61 °FPartly sunny.7 mph51%29.96 "Hg43 mi
8:00 AM58 °FScattered clouds.5 mph58%29.98 "Hg43 mi
7:00 AM56 °FCool.5 mph60%29.98 "Hg12 mi
4:00 AM54 °FCool.6 mph63%30.01 "Hg12 mi
3:00 AM55 °FCool.6 mph60%30.02 "Hg12 mi
2:00 AM56 °FRefreshingly cool.6 mph59%30.01 "Hg12 mi
1:00 AM56 °FRefreshingly cool.5 mph59%30.02 "Hg12 mi
12:00 AM58 °FRefreshingly cool.6 mph56%30.01 "Hg12 mi
10:00 PM
Fri, Jul 31
61 °FPassing clouds.6 mph50%30.01 "Hg47 mi
9:00 PM63 °FPassing clouds.6 mph45%29.99 "Hg47 mi
8:00 PM67 °FPartly sunny.6 mph38%29.98 "Hg47 mi
7:00 PM70 °FPartly sunny.5 mph29%29.96 "Hg47 mi
6:00 PM72 °FOvercast.N/A28%29.96 "Hg47 mi
5:00 PM70 °FPartly sunny.3 mph29%29.98 "Hg47 mi
4:00 PM70 °FScattered clouds.5 mph29%29.99 "Hg47 mi
3:00 PM70 °FScattered clouds.N/A30%30.01 "Hg47 mi
2:00 PM68 °FScattered clouds.5 mph32%30.02 "Hg47 mi
1:00 PM66 °FScattered clouds.3 mph37%30.04 "Hg47 mi
12:00 PM66 °FScattered clouds.3 mph39%30.05 "Hg43 mi
Weather by CustomWeather, © 2015

See weather overviewHow to use our weather pages